YZ-1 R/B, 41929

Orbit data source: Space-Track

YZ-1 R/B, 41929 is space debris in HEO originally from a launch on Mon, 30 Mar 2015 UTC launched from the Xichang Space Center, China (XSC). Debris objects in space refer to the collection of defunct objects orbiting the Earth. Examples of debris include non-operational satellites, rocket bodies, and fragments generated from explosions, collisions, or faulty payload assembly.

Loading next visibility...
YZ-1 R/B details
Identifier
41929, 2015-019C
Orbit
HEO
Last TLE updatein 2 days
Origin
Flag of CNCASC (CN / PRC)
ManufacturerCALT
MissionSpacecraft
Bus & MotorYZ-1, Unknown motor
Mass2,075 kg wet, 2,075 kg dry
Launch date (UTC)
2015-03-30 (10 years ago)
Launch vehicleUnknown
Launch site
Xichang Space Center, China (XSC)
Object type
Payload
Rocket body
Debris
Shape & HBRDouble Cone, 4 m
Radar Cross Section5.890 m², Large (>1 m²)

Expand to show TLE details & history

TLE from in 2 days
0 YZ-1 R/B
1 41929U 15019C   25026.89385383  .00000168  00000-0  00000-0 0  9998
2 41929  11.7770 174.9764 6111796 226.0068   0.1405  0.27930498  9363
Epoch: 2025-01-26T21:27Z
Definitive object data (Epoch: 2025-01-26T21:27:08.97Z)
Latitude-8.50616°
Longitude-47.63206°
Altitude32,810.579 km
Speed4.039 km/s
True Right ascension02h 42m 18s
True Declination-8° 29' 49"
Sunlit
Object was in daylight at TLE epoch
Visualization TLE readout
Latitude5.46785°
Longitude113.64842°
Altitude140,288.466 km
Speed1.185 km/s
Apparent Right ascension13h 26m 17s
Apparent Declination4° 00' 44"
Sunlit
Object is in daylight
Visualization observer readout
Local Sidereal Time14:00:22
Azimuth194.311° SSW
Elevation53.279°
Doppler factor1
Orbital elements
Apogee altitude152,902.864 km
Perigee altitude32,060.596 km
Semi-major axis98,859.867 km
Eccentricity0.6111796
Inclination11.777°
RAAN174.9764°
Arg. of periapsis226.0068°
True anomaly0.73556°
Mean anomaly0.1405°
Eccentric anomaly0.36135°
Mean motion0.06983 °/min
BSTARUnknown
Orbital period5155.72 mins
Loading maneuver chart data...
Loading historical data...
Loading historical data...
Loading historical data...
Loading historical data...
Loading historical data...
Loading historical data...
Loading historical data...
Other satellites on launch #19 in the year 2015 (2015-03-30 UTC)

YZ-1 R/B Visibility forecast

Observer location: undefined°, undefined

Span
Click to sort rows by Start time (UTC) header in descending order
Start Az.
Max El. time (UTC)
Max El. Az.
Max El.
End time (UTC)
End Az.
313 mins2025-01-24 12:44:28.366Z194.309° SSW2025-01-24 12:44:28.366Z194.309° SSW38.713°2025-01-24 17:57:28.366Z268.334° W
255 mins2025-01-25 08:29:28.366Z88.216° E2025-01-25 12:44:28.366Z138.95° SSE38.346°2025-01-25 12:44:28.366Z138.95° SSE
|